Regional Weather Roundup
Issued by NWS

Home | Current Version | Previous Version | Text Only | Print | Product List | Glossary Off
Versions: 1 2 3 4 5 6 7 8 9 10 11 12 13 14 15 16 17 18 19 20 21 22 23 24 25 26 27 28 29 30 31 32 33 34 35 36 37 38 39 40 41 42 43 44 45 46 47 48 49 50

000
ASUS43 KDTX 240110
RWRMI
MICHIGAN HOURLY REGIONAL WEATHER ROUNDUP
NATIONAL WEATHER SERVICE DETROIT/PONTIAC MI
900 PM EDT FRI JUN 23 2017

NOTE: "FAIR" INDICATES FEW OR NO CLOUDS BELOW 12,000 FEET WITH NO
SIGNIFICANT WEATHER AND/OR OBSTRUCTION TO VISIBILITY.

MIZ047>049-052>055-059>063-066>070-074>076-081>083-240200-
SOUTHEAST LOWER MICHIGAN

CITY           SKY/WX    TMP DP  RH WIND       PRES   REMARKS
ADRIAN         CLOUDY    72  59  63 NW7       29.69R
ALMA           CLEAR     69  51  52 W6        29.68R
ANN ARBOR      CLOUDY    72  57  59 W13       29.67R
BAD AXE        CLOUDY    71  55  58 NW6       29.63S
CARO           PTCLDY    72  58  62 NW6       29.64R
DETROIT CITY   CLOUDY    74  58  57 NW7       29.65R
DETROIT        CLOUDY    74  60  61 NW7       29.66R
FLINT          CLOUDY    70  57  63 W6        29.66R
GROSSE ILE     CLOUDY    73  62  67 NW7       29.65R
HILLSDALE      MOCLDY    68  54  60 W8        29.71R
HOWELL         CLOUDY    70  55  57 W6        29.68R

CITY           SKY/WX    TMP DP  RH WIND       PRES   REMARKS
JACKSON        PTCLDY    70  59  68 W7        29.70R
LAMBERTVILLE   CLOUDY    72  62  70 W3        29.67R
LANSING        CLEAR     72  48  42 W6        29.69R
LAPEER         FAIR      73  60  63 W6        29.65R
MASON          CLEAR     71  54  55 W7        29.69R
MONROE         MOCLDY    72  65  77 W3        29.66R
MT. CLEMENS    MOCLDY    73  59  61 NW7       29.62R
PONTIAC        MOCLDY    72  56  57 W10       29.65R
PORT HOPE        N/A     68  65  90 SE5       29.61R
PORT HURON     CLOUDY    68  61  77 CALM      29.64R
TRI CITIES     CLEAR     72  52  49 W9        29.65R
MIDLAND        FAIR      72  51  46 W3        29.64S
TROY           CLOUDY    75  58  55 W6        29.67R
SAGINAW HB     PTCLDY    72  46  40 W10       29.64S
$$
MIZ043>046-050>051-056>058-064>065-071>073-077>080-240200-
SOUTHWEST LOWER MICHIGAN

CITY           SKY/WX    TMP DP  RH WIND       PRES   REMARKS
BATTLE CREEK   CLEAR     68  55  63 W6        29.72R
BENTON HARBOR  PTCLDY    69  55  60 CALM      29.71R
BIG RAPIDS     CLOUDY    69  52  55 W6        29.68R
COLDWATER      PTCLDY    69  51  52 W6        29.72R
FREMONT        CLOUDY    69  52  54 W7        29.70R
HOLLAND        PTCLDY    69  60  73 SW6       29.71R
GRAND RAPIDS   MOCLDY    72  49  44 W8        29.69R
IONIA          FAIR      72  49  44 W5        29.68R
KALAMAZOO      CLEAR     71  51  49 W6        29.71S
LUDINGTON      MOCLDY    66  58  75 CALM      29.68R
MARSHALL       CLEAR     69  52  54 W6        29.71R
MOUNT PLEASANT CLEAR     70  51  51 W3        29.66S
MUSKEGON       CLOUDY    68  61  78 SW7       29.70R
SOUTH HAVEN    CLEAR     71  59  66 CALM      29.71S
$$
MIZ016>042-240200-
NORTHERN LOWER MICHIGAN

CITY           SKY/WX    TMP DP  RH WIND       PRES   REMARKS
ALPENA         CLEAR     67  54  63 N10       29.63R
BEAVER ISLAND  CLOUDY    65  50  57 N3        29.67R
BELLAIRE       CLOUDY    70  50  48 NW9       29.64R
CADILLAC       CLEAR     68  50  51 W7        29.67S
CHARLEVOIX     CLOUDY    63  55  74 N7        29.69R
FRANKFORT      CLOUDY    69  52  55 W9        29.66R
GAYLORD        CLOUDY    68  48  48 N7        29.65R
GRAYLING       CLEAR     68  49  50 W3        29.66S
HARBOR SPRINGS MOCLDY    65  51  60 N6        29.65R
HOUGHTON LAKE  PTCLDY    71  48  43 W9        29.66R
MANISTEE       CLOUDY    68  54  60 NW10      29.67R
OSCODA         CLEAR     70  62  74 CALM      29.61S
PELLSTON       MOCLDY    66  48  52 NW8       29.66R
ROGERS CITY    CLEAR     63  53  71 NW8G16    29.65R
TRAVERSE CITY  CLOUDY    73  51  46 W13       29.63R
$$
MIZ007>008-015-240200-
EASTERN UPPER MICHIGAN

CITY           SKY/WX    TMP DP  RH WIND       PRES   REMARKS
KINROSS        PTCLDY    59  48  67 NW5       29.66R
MACKINAC ISLAN CLOUDY    63  49  61 N10       29.65R
NEWBERRY       CLEAR     59  49  67 NW7       29.67R
S. S. MARIE    CLEAR     58  48  69 NW7       29.65R
MUNISING         N/A     60  49  66 NW14      29.67R
$$
MIZ004>006-011>014-085-240200-
CENTRAL UPPER MICHIGAN

CITY           SKY/WX    TMP DP  RH WIND       PRES   REMARKS
MANISTIQUE     PTCLDY    63  48  57 N7        29.67R
ESCANABA       CLEAR     69  47  45 NW7       29.67R
MENOMINEE      CLEAR     70  49  47 NW8       29.69R
SAWYER-GWINN   CLEAR     66  46  48 W14       29.69R
$$
MIZ001>003-009>011-084-240200-
WESTERN UPPER MICHIGAN

CITY           SKY/WX    TMP DP  RH WIND       PRES   REMARKS
IRON MOUNTAIN  PTCLDY    66  45  46 NW7       29.70R
HOUGHTON       MOCLDY    60  47  61 W15       29.69R
COPPER HARBOR    N/A     63  48  58 NW6       29.66R
IRONWOOD       MOCLDY    63  49  60 NW3       29.75R
$$

ABBREVIATIONS USED IN REMARKS
   TC - TEMPERATURE IN CELSIUS
  WCI - WIND CHILL INDEX
   HX - HEAT INDEX
  VSB - VISIBILITY




USA.gov is the U.S. government's official web portal to all federal, state and local government web resources and services.